Weather History for Nagoya / Chubu, Japan

Change the Weather History Date:

Sunday, February 10, 2013

  Actual Average Record
Temperature  
Mean Temperature 42 °F -  
Max Temperature 46 °F - - ()
Min Temperature 37 °F - - ()
Degree Days  
Heating Degree Days 24    
Moisture  
Dew Point 29 °F    
Average Humidity 60    
Maximum Humidity 70    
Minimum Humidity 46    
Precipitation  
Precipitation 0.00 in - - ()
Sea Level Pressure  
Sea Level Pressure 30.10 in    
Wind  
Wind Speed 14 mph ()    
Max Wind Speed 21 mph    
Max Gust Speed -    
Visibility 6.2 miles    
Events      
T = Trace of Precipitation, MM = Missing Value Source: Averaged Metar Reports

Daily Weather History Graph

Daily Weather History Graph

Search for Another Location

Airport:

Trip Planner

Search our weather history database for the weather conditions in past years. The results will help you decide how hot, cold, wet, or windy it might be!

Date:

Astronomy

Feb. 10, 2013 Rise Set
Actual Time 6:43 AM JST 5:30 PM JST
Civil Twilight 6:17 AM JST 5:56 PM JST
Nautical Twilight 5:48 AM JST 6:26 PM JST
Astronomical Twilight 5:18 AM JST 6:55 PM JST
Moon 6:11 AM JST (2/10) 5:36 PM JST (2/10)
Length of Visible Light 11h 38m
Length of Day
10h 46m
Waning Crescent, 0% of the Moon is Illuminated
Feb 10
Waning Crescent
Feb 10
New
Feb 18
First Quarter
Feb 26
Full
Mar 5
Last Quarter

Hourly Weather History & Observations

Time (JST) Temp. Windchill Dew Point Humidity Pressure Visibility Wind Dir Wind Speed Gust Speed Precip Events Conditions
12:00 AM 39.2 °F 30.2 °F 26.6 °F 61% 30.15 in 6.2 mi WNW 17.3 mph - N/A   Partly Cloudy
12:30 AM 39.2 °F 30.5 °F 26.6 °F 61% 30.12 in 6.2 mi NW 16.1 mph - N/A   Partly Cloudy
1:00 AM 39.2 °F 30.5 °F 28.4 °F 65% 30.12 in 6.2 mi WNW 16.1 mph - N/A   Partly Cloudy
1:30 AM 39.2 °F 29.8 °F 30.2 °F 70% 30.12 in 6.2 mi NW 18.4 mph - N/A   Partly Cloudy
2:00 AM 37.4 °F 27.5 °F 28.4 °F 70% 30.12 in 6.2 mi WNW 18.4 mph - N/A   Partly Cloudy
2:30 AM 39.2 °F 29.3 °F 30.2 °F 70% 30.12 in 6.2 mi WNW 20.7 mph - N/A   Partly Cloudy
3:00 AM 39.2 °F 29.8 °F 30.2 °F 70% 30.12 in 6.2 mi WNW 18.4 mph - N/A   Partly Cloudy
3:30 AM 37.4 °F 27.5 °F 28.4 °F 70% 30.12 in 6.2 mi WNW 18.4 mph - N/A   Partly Cloudy
4:00 AM 37.4 °F 28.2 °F 26.6 °F 65% 30.12 in 6.2 mi WNW 16.1 mph - N/A   Partly Cloudy
4:30 AM 37.4 °F 28.9 °F 28.4 °F 70% 30.12 in 6.2 mi West 13.8 mph - N/A   Partly Cloudy
5:00 AM 37.4 °F 29.8 °F 26.6 °F 65% 30.12 in 6.2 mi WNW 11.5 mph - N/A   Partly Cloudy
5:30 AM 37.4 °F 28.5 °F 24.8 °F 60% 30.12 in 6.2 mi WNW 15.0 mph - N/A   Partly Cloudy
6:00 AM 39.2 °F 30.5 °F 26.6 °F 61% 30.12 in 6.2 mi WNW 16.1 mph - N/A   Mostly Cloudy
6:30 AM 39.2 °F 29.8 °F 28.4 °F 65% 30.12 in 6.2 mi WNW 18.4 mph - N/A   Mostly Cloudy
7:00 AM 39.2 °F 30.5 °F 26.6 °F 61% 30.15 in 6.2 mi WNW 16.1 mph - N/A   Scattered Clouds
7:30 AM 39.2 °F 32.0 °F 26.6 °F 61% 30.15 in 6.2 mi WNW 11.5 mph - N/A   Partly Cloudy
8:00 AM 39.2 °F 32.0 °F 28.4 °F 65% 30.15 in 6.2 mi WNW 11.5 mph - N/A   Partly Cloudy
8:30 AM 41.0 °F 35.2 °F 28.4 °F 61% 30.15 in 6.2 mi WNW 9.2 mph - N/A   Partly Cloudy
9:00 AM 41.0 °F 33.9 °F 28.4 °F 61% 30.12 in 6.2 mi West 12.7 mph - N/A   Partly Cloudy
9:30 AM 41.0 °F 33.5 °F 30.2 °F 65% 30.12 in 6.2 mi West 13.8 mph - N/A   Partly Cloudy
10:00 AM 42.8 °F 35.8 °F 28.4 °F 57% 30.12 in 6.2 mi West 13.8 mph - N/A   Partly Cloudy
10:30 AM 42.8 °F 35.4 °F 28.4 °F 57% 30.12 in 6.2 mi West 15.0 mph - N/A   Partly Cloudy
11:00 AM 44.6 °F 39.2 °F 28.4 °F 53% 30.12 in 6.2 mi WNW 10.4 mph - N/A   Partly Cloudy
11:30 AM 44.6 °F 40.2 °F 30.2 °F 57% 30.12 in 6.2 mi WNW 8.1 mph - N/A   Partly Cloudy
12:00 PM 44.6 °F 40.7 °F 26.6 °F 49% 30.09 in 6.2 mi WNW 6.9 mph - N/A   Partly Cloudy
12:30 PM 46.4 °F 44.3 °F 26.6 °F 46% 30.09 in 6.2 mi NNW 4.6 mph - N/A   Partly Cloudy
1:00 PM 46.4 °F 42.9 °F 26.6 °F 46% 30.06 in 6.2 mi North 6.9 mph - N/A   Partly Cloudy
1:30 PM 46.4 °F 42.4 °F 28.4 °F 50% 30.06 in 6.2 mi NNW 8.1 mph - N/A   Partly Cloudy
2:00 PM 46.4 °F 41.5 °F 32.0 °F 57% 30.06 in 6.2 mi NNW 10.4 mph - N/A   Partly Cloudy
2:30 PM 46.4 °F 39.0 °F 32.0 °F 57% 30.06 in 6.2 mi NNW 19.6 mph - N/A   Partly Cloudy
3:00 PM 46.4 °F 39.5 °F 30.2 °F 53% 30.06 in 6.2 mi NNW 17.3 mph - N/A   Partly Cloudy
3:30 PM 46.4 °F 39.2 °F 30.2 °F 53% 30.06 in 6.2 mi NNW 18.4 mph - N/A   Partly Cloudy
4:00 PM 46.4 °F 39.2 °F 30.2 °F 53% 30.06 in 6.2 mi NNW 18.4 mph - N/A   Partly Cloudy
4:30 PM 46.4 °F 39.2 °F 30.2 °F 53% 30.06 in 6.2 mi NNW 18.4 mph - N/A   Partly Cloudy
5:00 PM 44.6 °F 36.6 °F 30.2 °F 57% 30.06 in 6.2 mi NNW 19.6 mph - N/A   Partly Cloudy
5:30 PM 42.8 °F 34.8 °F 30.2 °F 61% 30.06 in 6.2 mi North 17.3 mph - N/A   Partly Cloudy
6:00 PM 42.8 °F 34.8 °F 30.2 °F 61% 30.09 in 6.2 mi NNW 17.3 mph - N/A   Partly Cloudy
6:30 PM 42.8 °F 35.1 °F 30.2 °F 61% 30.09 in 6.2 mi NNW 16.1 mph - N/A   Partly Cloudy
7:00 PM 42.8 °F 35.4 °F 30.2 °F 61% 30.09 in 6.2 mi NNW 15.0 mph - N/A   Partly Cloudy
7:30 PM 44.6 °F 37.2 °F 30.2 °F 57% 30.09 in 6.2 mi NNW 17.3 mph - N/A   Partly Cloudy
8:00 PM 44.6 °F 37.8 °F 30.2 °F 57% 30.09 in 6.2 mi NW 15.0 mph - N/A   Scattered Clouds
8:30 PM 44.6 °F 38.4 °F 32.0 °F 61% 30.09 in 6.2 mi NW 12.7 mph - N/A   Partly Cloudy
9:00 PM 44.6 °F 39.2 °F 30.2 °F 57% 30.09 in 6.2 mi WNW 10.4 mph - N/A   Partly Cloudy
9:30 PM 42.8 °F 37.5 °F 30.2 °F 61% 30.09 in 6.2 mi West 9.2 mph - N/A   Partly Cloudy
10:00 PM 42.8 °F 39.3 °F 32.0 °F 66% 30.09 in 6.2 mi West 5.8 mph - N/A   Partly Cloudy
10:30 PM 42.8 °F 41.1 °F 32.0 °F 66% 30.09 in 6.2 mi WSW 3.5 mph - N/A   Partly Cloudy
11:00 PM 42.8 °F 38.0 °F 32.0 °F 66% 30.09 in 6.2 mi SW 8.1 mph - N/A   Partly Cloudy
11:30 PM 42.8 °F 39.3 °F 30.2 °F 61% 30.09 in 6.2 mi SW 5.8 mph - N/A   Scattered Clouds